Location: Cañada de la Miga
(34.7595°N, 106.2317°W)
Time: 12:34:41
(UTC+00:00)

A-11 Canister half - Pass Details

Date: 30 November 2021
Orbit: 1516 x 1684 km, 47.2° (Epoch: 26 January)

Event Time Altitude Azimuth Distance (km) Brightness Sun altitude
Rises 12:29:06 0° 192° (SSW) 4,706 11.6 -17.0°
Reaches altitude 10° 12:32:41 10° 181° (S) 3,749 11.2 -16.3°
Maximum altitude 12:40:22 28° 127° (SE) 2,643 11.0 -14.8°
Drops below altitude 10° 12:48:16 10° 73° (ENE) 3,871 12.0 -13.2°
Sets 12:52:00 0° 63° (ENE) 4,884 12.4 -12.5°
